Regional Weather Roundup
Issued by NWS Mobile, AL

Home | Current Version | Previous Version | Text Only | Print | Product List | Glossary On
Versions: 1 2 3 4 5 6 7 8 9 10 11 12 13 14 15 16 17 18 19 20 21 22 23 24 25 26 27 28 29
000
ASUS44 KMOB 082012
RWRMOB
REGIONAL WEATHER ROUNDUP
NATIONAL WEATHER SERVICE MOBILE AL
200 PM CST THU DEC 08 2016

NOTE: "FAIR" INDICATES FEW OR NO CLOUDS BELOW 12,000 FEET WITH NO
      SIGNIFICANT WEATHER AND/OR OBSTRUCTIONS TO VISIBILITY.

  * THESE STATIONS ARE PART OF THE UNIVERSITY OF SOUTH ALABAMA
    MESONET AND ARE NOT UNDER NWS OR FAA QUALITY CONTROL.

ALZ061>064-082100-
COASTAL ALABAMA

CITY           SKY/WX    TMP DP  RH WIND       PRES   REMARKS
MOBILE REG APT NOT AVBL
BROOKLEY FIELD CLOUDY    54  36  50 N14       30.29F
USA CAMPUS*      N/A     50  37  62 N3        30.29R
DOG RIVER*       N/A     52  36  54 NE8       31.12F


CITY           SKY/WX    TMP DP  RH WIND       PRES   REMARKS
GULF SHORES    NOT AVBL

$$

ALZ051>060-082100-
INTERIOR SOUTHWEST AND SOUTH CENTRAL ALABAMA

CITY           SKY/WX    TMP DP  RH WIND       PRES   REMARKS
GREENVILLE     MOSUNNY   53  25  33 N16       30.28R
EVERGREEN      CLOUDY    53  31  42 N13G24    30.29S
ATMORE*          N/A     52  36  54 N15       30.29F
ANDALUSIA/OPP  CLOUDY    59  34  39 N13       30.26S
ANDALUSIA*       N/A     54  36  50 N3        30.26S
FLORALA APT    PTSUNNY   57  34  41 N9G20     30.26R
FLORALA*         N/A     55  36  47 W10       31.04R

$$

FLZ001>006-082100-
WESTERN FLORIDA PANHANDLE

CITY           SKY/WX    TMP DP  RH WIND       PRES   REMARKS
PENSACOLA      CLOUDY    55  36  48 N15G25    30.25S
NAS PENSACOLA  CLOUDY    55  37  50 N15G22    30.25R
MILTON         PTSUNNY   54  35  48 N9G17     30.27R
WHTNG S FIELD  CLOUDY    57  36  45 N18       30.27R


CITY           SKY/WX    TMP DP  RH WIND       PRES   REMARKS
JAY*             N/A     52  34  50 VRB14     30.28S
DUKE FIELD     PTSUNNY   58  36  44 N14       30.23S
CRESTVIEW      CLOUDY    57  36  45 N9G17     30.26R
VALPARAISO     PTSUNNY   60  37  40 N12       30.22F
DESTIN         MOSUNNY   63  40  42 N14       30.22F

$$

MSZ076-079-082100-
INTERIOR SOUTHEAST MISSISSIPPI

CITY           SKY/WX    TMP DP  RH WIND       PRES   REMARKS
LEAKESVILLE*   NOT AVBL
AGRICOLA*      NOT AVBL

$$

MARINE OBSERVATIONS

STATION/POSITION TIME  TEMP    WIND        PRES    WAVE
                       AIR SEA DIR/SP/G            HT/PER
                 (UTC) (F)     (DEG/KT/KT) (MB)    (FT/S)
PASCAGOULA       1948   52      10/ 14/ 18 1024.7F
PETIT BOIS ISLND 1948   51      10/ 21/ 26 1025.1F
GRAND BAY        1845   51      10/ 12     1026.0F
KATRINA CUT      1930   49      20/ 22     1024.4F
CEDAR POINT      1930   51      20/ 13     1024.0F
E DAUPHIN ISLAND 2000   51      10/ 23/ 26 1024.4F
MIDDLE BAY LIGHT 1930          360/ 23     1024.4F
USCG MOBILE BAY  1948   51 62  360/ 11/ 15 1026.2F
STATE DOCKS      1942   53 63              1025.4F
MEAHER PARK      1930   51     350/  9     1025.1F
WEEKS BAY        1845   52                   N/A
12 S ORANGE BCH  1950   56 69   10/ 19/ 25 1024.0F   3/ 4
PENSACOLA BAY    1942   55 63   10/ 10/ 14 1024.5R
64 S DAUPHIN ISL 1950   58 75   20/ 21/ 29 1023.5F   6/ 7
67 S FORT MORGAN 1930   59      30/ 21     1023.0F

$$

SELECTED LOCATIONS ACROSS THE REGION

CITY           SKY/WX    TMP DP  RH WIND       PRES   REMARKS
NEW ORLEANS    CLOUDY    51  42  71 N9        30.30F
GULFPORT       CLOUDY    52  37  56 N17G26    30.28F
PASCAGOULA AP  CLOUDY    53  34  48 N20       30.27F
PASCAGOULA*    NOT AVBL
HATTIESBURG    MOSUNNY   54  30  40 N13       30.33F
LAUREL         PTSUNNY   54  28  37 N16G23    30.35F
MERIDIAN       NOT AVBL
JACKSON        CLOUDY    46  28  49 N13       30.41S
MONTGOMERY     SUNNY     53  22  29 N14G23    30.31F
TROY           SUNNY     57  30  35 N16       30.27S
ASHFORD*         N/A     54  36  50 N3        30.26S
DOTHAN         SUNNY     58  38  47 N16G24    30.25S
PANAMA CITY    MOSUNNY   62  39  42 N16G24    30.20S

$$





USA.gov is the U.S. government's official web portal to all federal, state and local government web resources and services.